Weather in Mek'ele

Ethiopia     13°29′38″N   39°28′25″E
temp.,
°C
wind,
m/s
gust,
m/s
humid.,
%
clouds,
%
prec.,
mm/h
press.,
hPa
HPBL,
m
26 february, fri
fri2600:00+16se11815 0.1 101590
03:00+15se22812 0.1 101458
06:00+14ese33850 0.0 101475
09:00+17se33711 0.0 1015293
12:00+21se32512 0.0 1013857
15:00+23ese55471 0.3 10091279
18:00+18ese567110 0.4 1011357
21:00+17se457341 1.3 1013184
27 february, sat
sat2700:00+16se238132 0.1 1014116
03:00+16sse117416 0.1 101223
06:00+15ese117440 0.0 101323
09:00+18sse115621 0.0 1014357
12:00+22se224055 0.1 10131776
15:00+21se545061 1.2 1009639
18:00+19se675889 0.6 1010373
21:00+17se467070 0.9 1014347
28 february, sun
sun2800:00+17ese127328 0.1 101467
03:00+15sse007921 0.2 101223
06:00+14se11780 0.0 101323
09:00+18s12540 0.0 1015335
12:00+22sse222580 0.0 10131938
15:00+23se653350 0.1 10091966
18:00+19ese79630 0.1 1011515
21:00+16e458117 0.3 1014450
1 march, mon
mon100:00+15se35842 0.1 1014354
03:00+14ene11871 0.1 101325
06:00+14ese12820 0.0 101423
09:00+17ese22610 0.0 1016398
12:00+20ese54532 0.0 1013937
15:00+21ese75542 0.1 1010780
18:00+17se89753 0.1 1012375
21:00+15ese57839 0.1 1015495
2 march, tue
tue200:00+15ese458144 0.0 1015431
03:00+14ese348728 0.0 1014287
06:00+13ese229014 0.0 101560
09:00+17se23668 0.0 1017361
12:00+21se42527 0.0 1014820
15:00+22ese64464 0.1 10111179
18:00+17se810761 0.0 1012415
21:00+15ese7108351 0.0 1014514